FW7384 Weather Reports


Display with metric or nautical units.
time (UTC)temp
F
wind
direction
speed
MPH
gust
MPH
rain 1hr
in
rain 24hr
in
rain mn
in
humidity
%
barometer
mb
20260905052503 53 223 2.0 5.0 0.00 0.18 0.13 99 999.8
20260905052004 52 227 2.0 5.0 0.00 0.18 0.13 99 999.8
20260905051503 52 205 3.0 5.0 0.00 0.18 0.13 99 999.8
20260905051213 52 192 3.0 5.0 0.00 0.18 0.13 99 999.7
20260905050504 52 193 2.0 5.0 0.00 0.18 0.13 99 999.9
20260905050213 52 194 2.0 5.0 0.00 0.18 0.13 99 999.7
20260905045503 52 201 2.0 5.0 0.00 0.19 0.13 99 999.7
20260905045003 52 214 1.0 4.0 0.00 0.19 0.13 99 999.6
20260905044504 52 226 2.0 5.0 0.00 0.19 0.13 99 999.6
20260905044003 52 212 2.0 5.0 0.00 0.19 0.13 99 999.7
20260905043504 52 234 2.0 4.0 0.00 0.20 0.13 99 999.5
20260905043213 52 262 1.0 4.0 0.00 0.20 0.13 99 999.3
20260905042503 52 264 1.0 4.0 0.00 0.20 0.13 99 999.3
20260905042003 52 248 2.0 5.0 0.00 0.20 0.13 99 999.5
20260905041503 52 228 2.0 5.0 0.00 0.20 0.13 99 999.4
20260905041003 52 223 2.0 5.0 0.00 0.20 0.13 99 999.3
20260905040503 52 212 2.0 6.0 0.00 0.19 0.13 99 999.2
20260905040004 52 214 2.0 6.0 0.00 0.19 0.13 99 999.2
20260905035504 52 201 2.0 4.0 0.00 0.19 0.13 99 999.3
20260905035003 52 185 2.0 4.0 0.00 0.19 0.13 99 999.1
20260905034713 52 209 2.0 4.0 0.00 0.19 0.13 99 999.2
20260905034003 52 258 1.0 5.0 0.00 0.19 0.13 99 999.0
20260905033504 52 241 1.0 5.0 0.00 0.19 0.13 99 998.9
20260905033003 52 208 2.0 5.0 0.00 0.19 0.13 99 999.0
20260905032503 52 213 2.0 4.0 0.00 0.19 0.13 99 999.0
20260905032003 52 218 2.0 6.0 0.00 0.19 0.13 99 999.0
20260905031503 52 217 2.0 6.0 0.00 0.19 0.13 99 998.9
20260905031003 52 217 2.0 6.0 0.00 0.19 0.13 99 998.8
20260905030713 52 202 3.0 6.0 0.00 0.19 0.13 99 998.8
20260905030214 52 203 3.0 6.0 0.00 0.19 0.13 99 998.8
20260905025504 52 218 2.0 4.0 0.00 0.19 0.13 99 998.7
20260905025214 52 212 1.0 4.0 0.00 0.19 0.13 99 998.6
20260905024503 52 203 1.0 4.0 0.00 0.19 0.13 99 998.6
20260905024003 52 219 1.0 4.0 0.00 0.19 0.13 99 998.6
20260905023503 52 216 1.0 5.0 0.00 0.19 0.13 99 998.5
20260905023003 52 207 1.0 5.0 0.00 0.19 0.13 99 998.6
20260905022503 52 214 1.0 4.0 0.00 0.19 0.13 99 998.6
20260905022214 52 217 1.0 4.0 0.00 0.19 0.13 99 998.5
20260905021503 52 220 1.0 5.0 0.00 0.19 0.13 99 998.4
20260905021003 52 209 1.0 5.0 0.00 0.19 0.13 99 998.5
20260905020713 52 205 1.0 6.0 0.00 0.19 0.13 99 998.4
20260905020214 52 207 2.0 6.0 0.00 0.19 0.13 99 998.2
20260905015503 52 203 2.0 5.0 0.00 0.19 0.13 99 998.2
20260905015214 52 205 2.0 5.0 0.00 0.19 0.13 99 998.2
20260905014713 52 208 2.0 5.0 0.00 0.19 0.13 99 998.2
20260905014003 52 205 2.0 6.0 0.00 0.19 0.13 99 998.2
20260905013504 52 204 2.0 6.0 0.00 0.19 0.13 99 998.1
20260905013003 52 211 1.0 5.0 0.00 0.19 0.13 99 998.2
20260905012503 52 216 1.0 4.0 0.01 0.19 0.13 99 998.1
20260905012213 52 215 1.0 3.0 0.02 0.19 0.13 99 998.1
20260905011503 52 209 2.0 3.0 0.07 0.19 0.13 99 998.1
20260905011003 53 208 1.0 3.0 0.08 0.19 0.13 99 997.9
20260905010503 53 199 1.0 3.0 0.10 0.19 0.13 99 998.0
20260905010003 53 191 1.0 3.0 0.12 0.19 0.13 99 998.0
20260905005714 53 210 0.0 2.0 0.12 0.19 0.13 99 997.9
20260905005213 53 226 0.0 3.0 0.12 0.19 0.13 99 998.2
20260905004714 53 207 1.0 3.0 0.12 0.19 0.13 99 998.2
20260905004003 53 200 1.0 3.0 0.12 0.19 0.13 99 998.0
20260905003503 53 218 1.0 3.0 0.12 0.19 0.13 99 998.1
20260905003004 53 203 0.0 4.0 0.12 0.19 0.13 99 997.8
20260905002503 53 215 1.0 6.0 0.10 0.18 0.12 99 998.0
20260905002003 53 216 2.0 6.0 0.09 0.16 0.10 99 998.0
20260905001503 53 207 3.0 6.0 0.05 0.13 0.07 99 997.8
20260905001003 53 205 2.0 4.0 0.04 0.12 0.05 99 997.7
20260905000714 53 211 2.0 4.0 0.04 0.11 0.04 99 997.8
20260905000003 53 214 1.0 4.0 0.01 0.08 0.01 99 997.8
20260904235714 53 205 1.0 5.0 0.01 0.08 0.01 99 997.7
20260904235003 53 200 2.0 5.0 0.01 0.08 0.01 99 997.6
20260904234503 53 209 2.0 5.0 0.01 0.08 0.01 99 997.7
20260904234213 53 216 2.0 4.0 0.01 0.08 0.01 99 997.6
20260904233503 53 217 2.0 6.0 0.01 0.09 0.01 99 997.8
20260904233003 53 206 2.0 6.0 0.01 0.09 0.01 99 997.7
20260904232714 53 205 3.0 6.0 0.01 0.09 0.01 99 997.7
20260904232003 53 203 1.0 5.0 0.01 0.09 0.01 99 997.6
20260904231503 53 211 2.0 6.0 0.01 0.09 0.01 99 997.5
20260904231003 53 213 2.0 6.0 0.01 0.09 0.01 99 997.5
20260904230503 53 204 2.0 4.0 0.01 0.08 0.01 99 997.6
20260904230212 53 196 2.0 4.0 0.00 0.08 0.00 99 997.6
20260904225503 53 201 2.0 4.0 0.00 0.08 0.00 99 997.7
20260904225212 53 207 2.0 4.0 0.00 0.08 0.00 99 997.5
20260904224503 53 205 2.0 4.0 0.00 0.08 0.00 99 997.5
20260904224003 53 194 1.0 4.0 0.00 0.08 0.00 99 997.6
20260904223503 53 198 0.0 4.0 0.00 0.08 0.00 99 997.5
20260904223003 53 207 1.0 4.0 0.00 0.08 0.00 99 997.5
20260904222713 53 197 1.0 3.0 0.00 0.08 0.00 99 997.3
20260904222214 53 187 2.0 4.0 0.00 0.08 0.00 99 997.4
20260904221503 53 194 2.0 4.0 0.00 0.08 0.00 99 997.4
20260904221003 53 197 1.0 4.0 0.00 0.08 0.00 99 997.3
20260904220503 53 206 1.0 2.0 0.00 0.08 0.00 99 997.2
20260904220004 53 207 1.0 2.0 0.00 0.08 0.00 98 997.5
20260904215503 53 214 1.0 2.0 0.00 0.08 0.08 98 997.7
20260904215003 53 209 0.0 2.0 0.00 0.08 0.08 98 997.4
20260904214503 53 192 0.0 4.0 0.01 0.08 0.08 98 997.3
20260904214214 53 191 1.0 4.0 0.01 0.08 0.08 98 997.3
20260904213503 53 199 1.0 4.0 0.01 0.08 0.08 98 997.4
20260904213003 53 199 1.0 2.0 0.01 0.08 0.08 98 997.4
20260904212503 53 208 0.0 3.0 0.01 0.08 0.08 98 997.1
20260904212003 53 197 1.0 3.0 0.01 0.08 0.08 98 997.3
20260904211503 53 195 1.0 3.0 0.01 0.08 0.08 98 997.1
20260904211003 53 206 1.0 2.0 0.01 0.08 0.08 97 997.3
20260904210713 53 204 0.0 2.0 0.01 0.08 0.08 97 997.2
20260904210003 53 187 0.0 1.0 0.01 0.08 0.08 97 997.1
20260904205503 53 0 0.0 0.0 0.01 0.08 0.08 97 997.1
20260904205003 53 224 0.0 1.0 0.01 0.07 0.07 97 997.1
20260904204503 53 219 0.0 2.0 0.00 0.06 0.06 97 997.2
20260904204003 53 216 0.0 2.0 0.00 0.06 0.06 97 997.2
20260904203503 53 212 1.0 2.0 0.00 0.06 0.06 97 997.0
20260904203214 53 218 0.0 2.0 0.00 0.06 0.06 97 997.3
20260904202503 53 241 0.0 2.0 0.00 0.06 0.06 97 997.6
20260904202214 53 237 0.0 2.0 0.00 0.06 0.06 97 997.6
20260904201503 52 243 0.0 1.0 0.00 0.06 0.06 97 997.3
20260904201213 52 312 0.0 2.0 0.00 0.06 0.06 97 997.5
20260904200503 52 295 0.0 2.0 0.00 0.06 0.06 97 997.6
20260904200003 52 6 0.0 1.0 0.00 0.06 0.06 97 997.4
20260904195714 52 29 0.0 1.0 0.00 0.06 0.06 97 997.4
20260904195003 52 230 0.0 1.0 0.00 0.06 0.06 97 997.5
20260904194503 52 208 0.0 1.0 0.00 0.06 0.06 97 997.7
20260904194213 52 244 0.0 1.0 0.00 0.06 0.06 96 997.6
20260904193714 52 292 0.0 1.0 0.00 0.06 0.06 96 997.5
20260904193003 52 230 0.0 1.0 0.00 0.06 0.06 96 997.7
20260904192504 52 297 0.0 1.0 0.00 0.06 0.06 96 997.5
20260904192003 52 295 0.0 1.0 0.00 0.06 0.06 96 997.8
20260904191503 52 251 0.0 2.0 0.00 0.06 0.06 95 997.8
20260904191003 53 191 1.0 2.0 0.00 0.06 0.06 96 997.6
20260904190503 53 181 1.0 2.0 0.00 0.06 0.06 96 997.6
20260904190003 53 200 0.0 2.0 0.00 0.06 0.06 95 997.5
20260904185503 53 202 1.0 2.0 0.00 0.06 0.06 95 997.5
20260904185004 53 194 1.0 3.0 0.00 0.06 0.06 95 997.6
20260904184504 53 186 2.0 4.0 0.00 0.06 0.06 95 997.6
20260904184213 53 186 2.0 4.0 0.00 0.06 0.06 95 997.6
20260904183714 53 187 1.0 4.0 0.00 0.06 0.06 95 997.5
20260904183213 53 201 1.0 2.0 0.00 0.06 0.06 94 997.7
20260904182503 53 201 0.0 2.0 0.00 0.06 0.06 94 997.7
20260904182215 53 201 0.0 2.0 0.00 0.06 0.06 94 997.6
20260904181503 53 0 0.0 0.0 0.00 0.06 0.06 92 997.5
20260904181215 53 224 0.0 1.0 0.00 0.06 0.06 92 997.4
20260904180503 54 191 0.0 1.0 0.00 0.06 0.06 92 997.4
20260904180003 54 194 0.0 1.0 0.00 0.06 0.06 92 997.5
20260904175503 54 217 0.0 1.0 0.00 0.06 0.06 91 997.5
20260904175003 54 211 0.0 2.0 0.00 0.06 0.06 91 997.4
20260904174503 54 181 0.0 2.0 0.00 0.06 0.06 90 997.4
20260904174003 55 175 0.0 2.0 0.00 0.06 0.06 89 997.4
20260904173503 55 201 0.0 2.0 0.00 0.06 0.06 88 997.5
20260904173003 56 195 0.0 2.0 0.00 0.06 0.06 87 997.6
20260904172503 56 239 1.0 2.0 0.00 0.06 0.06 85 997.5
20260904172003 56 229 1.0 5.0 0.00 0.06 0.06 84 997.6
20260904171504 56 218 2.0 5.0 0.00 0.06 0.06 83 997.4
20260904171003 57 207 2.0 4.0 0.00 0.06 0.06 83 997.6
20260904170503 57 209 2.0 4.0 0.00 0.06 0.06 83 997.8
20260904170214 57 209 2.0 4.0 0.00 0.06 0.06 83 997.6
20260904165503 57 212 2.0 4.0 0.00 0.06 0.06 83 997.4
20260904165214 57 218 1.0 4.0 0.00 0.06 0.06 83 997.5
20260904164713 57 225 1.0 4.0 0.00 0.06 0.06 82 997.3
20260904164004 58 219 1.0 5.0 0.00 0.06 0.06 80 997.3
20260904163713 58 207 1.0 5.0 0.00 0.07 0.06 80 997.4
20260904163214 58 218 1.0 5.0 0.00 0.08 0.06 80 997.2
20260904162713 58 215 1.0 5.0 0.00 0.09 0.06 79 997.3
20260904162003 58 217 1.0 4.0 0.00 0.10 0.06 81 997.3
20260904161504 58 229 1.0 4.0 0.00 0.10 0.06 80 997.4
20260904161003 58 244 2.0 5.0 0.00 0.10 0.06 80 997.4
20260904160713 58 240 2.0 6.0 0.00 0.11 0.06 80 997.4
20260904160003 58 210 3.0 8.0 0.00 0.11 0.06 80 997.5
20260904155503 58 204 3.0 8.0 0.00 0.11 0.06 81 997.4
20260904155003 58 225 1.0 5.0 0.00 0.12 0.06 81 997.5
20260904154713 58 218 1.0 7.0 0.00 0.12 0.06 81 997.4
20260904154003 58 216 2.0 7.0 0.00 0.12 0.06 82 997.6
20260904153715 58 196 3.0 7.0 0.00 0.13 0.06 80 997.4
20260904153003 58 190 3.0 8.0 0.00 0.13 0.06 82 997.5
20260904152503 58 214 2.0 8.0 0.00 0.13 0.06 82 997.4
20260904152003 58 223 3.0 6.0 0.00 0.13 0.06 83 997.5
20260904151503 58 210 3.0 6.0 0.00 0.13 0.06 83 997.3
20260904151214 58 201 2.0 6.0 0.00 0.13 0.06 83 997.7
20260904150503 57 206 2.0 5.0 0.00 0.13 0.06 85 997.8
20260904150213 57 217 2.0 5.0 0.00 0.13 0.06 85 997.7
20260904145503 57 220 3.0 5.0 0.00 0.13 0.06 85 997.8
20260904145213 57 206 3.0 5.0 0.00 0.13 0.06 85 997.9
20260904144503 57 204 2.0 7.0 0.00 0.13 0.06 85 998.1
20260904144003 57 221 3.0 8.0 0.00 0.13 0.06 85 997.9
20260904143714 57 220 3.0 8.0 0.00 0.13 0.06 84 998.2
20260904143213 57 221 2.0 6.0 0.00 0.13 0.06 84 998.1
20260904142503 57 232 1.0 4.0 0.00 0.13 0.06 85 998.1
20260904142004 57 229 1.0 4.0 0.00 0.13 0.06 85 998.3
20260904141504 57 201 2.0 6.0 0.00 0.13 0.06 84 998.1
20260904141003 57 196 2.0 6.0 0.00 0.13 0.06 84 998.2
20260904140503 57 224 1.0 4.0 0.00 0.13 0.06 85 998.3
20260904140004 57 220 2.0 4.0 0.00 0.13 0.06 84 998.3
20260904135503 57 219 2.0 4.0 0.00 0.13 0.06 84 998.4
20260904135003 57 222 2.0 4.0 0.00 0.13 0.06 84 998.3
20260904134503 56 213 2.0 6.0 0.00 0.13 0.06 85 998.4
20260904134004 57 219 2.0 6.0 0.00 0.13 0.06 85 998.5
20260904133714 57 232 2.0 6.0 0.00 0.13 0.06 85 998.5
20260904133213 56 206 2.0 6.0 0.00 0.13 0.06 84 998.6
20260904132503 56 207 2.0 6.0 0.00 0.13 0.06 83 998.5
20260904132213 56 207 2.0 5.0 0.00 0.13 0.06 82 998.7
20260904131503 57 202 2.0 7.0 0.00 0.13 0.06 81 998.7
20260904131213 57 208 3.0 7.0 0.00 0.13 0.06 80 998.6
20260904130714 57 195 2.0 7.0 0.00 0.13 0.06 79 998.7
20260904130003 57 211 1.0 5.0 0.00 0.13 0.06 79 998.7
20260904125503 57 220 2.0 7.0 0.00 0.13 0.06 78 998.6
20260904125003 57 209 3.0 7.0 0.00 0.13 0.06 78 998.7
20260904124503 56 207 4.0 7.0 0.00 0.13 0.06 76 998.7
20260904124213 56 202 4.0 6.0 0.00 0.13 0.06 77 998.9
20260904123503 56 201 3.0 6.0 0.00 0.13 0.06 79 999.0
20260904123003 56 195 3.0 9.0 0.00 0.13 0.06 81 999.1
20260904122714 56 193 3.0 10.0 0.00 0.13 0.06 84 999.0
20260904122003 56 200 4.0 12.0 0.00 0.13 0.06 85 999.1
20260904121503 56 188 4.0 12.0 0.00 0.13 0.06 87 999.2
20260904121212 56 191 5.0 13.0 0.00 0.13 0.06 87 999.2
20260904120503 56 193 5.0 13.0 0.00 0.13 0.06 86 999.3
20260904120214 56 190 5.0 13.0 0.00 0.13 0.06 86 999.2
20260904115503 56 182 5.0 10.0 0.00 0.13 0.06 87 999.3
20260904115004 57 184 5.0 9.0 0.00 0.13 0.06 85 999.2
20260904114503 57 201 3.0 8.0 0.00 0.13 0.06 85 999.3
20260904114003 58 207 3.0 7.0 0.00 0.13 0.06 84 999.3
20260904113713 57 209 3.0 7.0 0.00 0.13 0.06 82 999.3
20260904113003 58 229 3.0 8.0 0.00 0.13 0.06 82 999.4
20260904112503 57 227 3.0 9.0 0.00 0.13 0.06 81 999.4
20260904112003 57 215 4.0 9.0 0.00 0.13 0.06 81 999.3
20260904111504 58 214 3.0 11.0 0.00 0.13 0.06 81 999.5
20260904110503 58 213 4.0 9.0 0.00 0.13 0.06 81 999.4
20260904110003 57 213 4.0 9.0 0.00 0.13 0.06 82 999.6
20260904105713 57 208 5.0 9.0 0.00 0.13 0.06 83 999.6
20260904105004 57 217 3.0 6.0 0.00 0.13 0.06 85 999.9
20260904104503 58 232 2.0 7.0 0.00 0.13 0.06 83 999.7
20260904104003 58 238 2.0 9.0 0.00 0.13 0.06 83 1000.0
20260904103713 57 235 2.0 9.0 0.00 0.13 0.06 84 999.9
20260904103003 57 222 3.0 9.0 0.00 0.13 0.06 84 1000.1
20260904102503 57 203 4.0 10.0 0.00 0.13 0.06 86 999.8
20260904102003 57 210 4.0 10.0 0.00 0.13 0.06 86 999.8
20260904101715 57 205 4.0 10.0 0.00 0.13 0.06 86 999.9
20260904101003 57 199 4.0 10.0 0.00 0.13 0.06 86 999.9
20260904100503 57 215 3.0 9.0 0.00 0.13 0.06 87 999.9
20260904100003 57 219 4.0 14.0 0.00 0.13 0.06 87 999.9
20260904095503 57 207 5.0 14.0 0.00 0.13 0.06 87 1000.1
20260904095003 58 211 5.0 13.0 0.00 0.13 0.06 87 1000.1
20260904094503 57 218 4.0 13.0 0.00 0.13 0.06 87 1000.2
20260904094003 57 213 4.0 9.0 0.00 0.13 0.06 88 1000.3
20260904093712 57 200 4.0 9.0 0.00 0.13 0.06 89 1000.2
20260904093004 57 216 3.0 12.0 0.00 0.13 0.06 89 1000.2
20260904092503 57 219 3.0 12.0 0.00 0.13 0.06 89 1000.2
20260904092213 56 212 3.0 12.0 0.00 0.13 0.06 89 1000.3
20260904091503 56 210 3.0 11.0 0.00 0.13 0.06 91 1000.3
20260904091003 56 207 4.0 11.0 0.00 0.13 0.06 92 1000.6
20260904090714 56 212 3.0 11.0 0.00 0.13 0.06 92 1000.4
20260904090003 56 234 2.0 9.0 0.00 0.13 0.06 92 1000.4
20260904085714 56 229 3.0 9.0 0.00 0.13 0.06 93 1000.4
20260904085213 56 221 3.0 9.0 0.01 0.13 0.06 92 1000.6
20260904084503 56 201 3.0 9.0 0.01 0.13 0.06 93 1000.4
20260904084003 56 189 3.0 9.0 0.01 0.13 0.06 93 1000.6
20260904083503 56 217 2.0 6.0 0.02 0.13 0.06 94 1000.4
20260904083004 56 218 3.0 7.0 0.02 0.13 0.06 95 1000.7
20260904082503 55 208 3.0 9.0 0.02 0.13 0.06 95 1000.4
20260904082003 55 216 3.0 10.0 0.02 0.13 0.06 94 1000.6
20260904081503 55 219 4.0 10.0 0.03 0.13 0.06 94 1000.7
20260904081213 55 205 4.0 13.0 0.03 0.13 0.06 94 1000.7
20260904080503 55 213 4.0 13.0 0.03 0.13 0.06 95 1000.8
20260904080213 55 211 4.0 10.0 0.03 0.13 0.06 95 1000.4
20260904075503 56 200 5.0 10.0 0.02 0.13 0.05 95 1000.8
20260904075213 55 203 5.0 10.0 0.02 0.13 0.05 95 1000.7
20260904074504 55 213 4.0 13.0 0.02 0.12 0.05 95 1000.9
20260904074215 55 213 4.0 13.0 0.02 0.12 0.05 96 1000.8
20260904073503 54 226 4.0 13.0 0.01 0.12 0.04 97 1000.9
20260904073003 54 237 4.0 11.0 0.01 0.11 0.04 98 1000.8
20260904072504 54 196 4.0 11.0 0.01 0.11 0.04 98 1000.8
20260904072004 54 177 3.0 11.0 0.01 0.11 0.04 98 1000.8
20260904071714 54 186 3.0 8.0 0.01 0.11 0.04 98 1001.0
20260904071213 54 191 4.0 10.0 0.00 0.11 0.04 98 1001.1
20260904070714 54 193 5.0 10.0 0.00 0.10 0.03 98 1001.1
20260904070004 54 210 5.0 14.0 0.00 0.10 0.03 98 1001.1
20260904065713 54 209 5.0 14.0 0.00 0.10 0.03 98 1001.1
20260904065212 54 198 4.0 11.0 0.00 0.10 0.03 98 1001.2
20260904064713 54 202 4.0 12.0 0.00 0.10 0.03 98 1001.2
20260904064003 54 200 4.0 12.0 0.00 0.10 0.03 98 1001.4
20260904063504 54 204 4.0 9.0 0.00 0.10 0.03 99 1001.6
20260904063003 54 205 4.0 9.0 0.00 0.10 0.03 99 1001.4
20260904062503 54 202 4.0 9.0 0.00 0.10 0.03 99 1001.3
20260904062003 54 191 3.0 15.0 0.00 0.10 0.03 99 1001.3
20260904061713 54 194 3.0 15.0 0.00 0.10 0.03 99 1001.2
20260904061003 54 213 3.0 15.0 0.00 0.10 0.03 99 1001.5
20260904060504 54 200 3.0 13.0 0.00 0.10 0.03 99 1001.5
20260904060214 54 184 3.0 9.0 0.00 0.10 0.03 99 1001.4
20260904055503 54 186 3.0 7.0 0.01 0.10 0.03 99 1001.6
20260904055214 54 204 4.0 10.0 0.01 0.10 0.03 99 1001.4
20260904054503 54 236 3.0 10.0 0.01 0.10 0.03 99 1001.5
20260904054003 53 204 3.0 10.0 0.01 0.10 0.03 99 1001.6
20260904053503 54 194 4.0 10.0 0.02 0.10 0.03 99 1001.5
20260904053003 54 205 4.0 9.0 0.02 0.10 0.03 99 1001.6